| time (UTC) | temp F | wind direction | speed knots | gust knots | rain 1hr in | rain 24hr in | rain mn in | humidity % | barometer mb |
| 20260906202320 | 100 | 195 | 1.7 | 3.5 | 0.00 | 0.00 | 0.00 | 34 | 1013.2 |
| 20260906201814 | 99 | 196 | 1.7 | 2.6 | 0.00 | 0.00 | 0.00 | 36 | 1013.4 |
| 20260906201314 | 102 | 176 | 2.6 | 5.2 | 0.00 | 0.00 | 0.00 | 34 | 1013.4 |
| 20260906200810 | 102 | 197 | 1.7 | 7.0 | 0.00 | 0.00 | 0.00 | 35 | 1013.2 |
| 20260906200306 | 102 | 166 | 3.5 | 5.2 | 0.00 | 0.00 | 0.00 | 34 | 1013.2 |
| 20260906195801 | 100 | 178 | 0.0 | 2.6 | 0.00 | 0.00 | 0.00 | 36 | 1013.4 |
| 20260906195257 | 101 | 62 | 3.5 | 6.1 | 0.00 | 0.00 | 0.00 | 36 | 1013.6 |
| 20260906194752 | 102 | 12 | 4.3 | 6.1 | 0.00 | 0.00 | 0.00 | 35 | 1013.4 |
| 20260906194243 | 101 | 136 | 0.9 | 1.7 | 0.00 | 0.00 | 0.00 | 36 | 1013.5 |
| 20260906193742 | 99 | 6 | 0.9 | 2.6 | 0.00 | 0.00 | 0.00 | 38 | 1013.9 |
| 20260906193237 | 99 | 71 | 3.5 | 7.8 | 0.00 | 0.00 | 0.00 | 37 | 1013.8 |
| 20260906192734 | 99 | 158 | 1.7 | 3.5 | 0.00 | 0.00 | 0.00 | 38 | 1014.0 |
| 20260906192228 | 98 | 164 | 1.7 | 1.7 | 0.00 | 0.00 | 0.00 | 41 | 1014.0 |
| 20260906191727 | 98 | 186 | 1.7 | 3.5 | 0.00 | 0.00 | 0.00 | 40 | 1014.0 |
| 20260906191222 | 97 | 163 | 2.6 | 6.1 | 0.00 | 0.00 | 0.00 | 40 | 1014.1 |
| 20260906190722 | 97 | 141 | 2.6 | 6.1 | 0.00 | 0.00 | 0.00 | 40 | 1014.1 |
| 20260906190216 | 97 | 168 | 4.3 | 7.0 | 0.00 | 0.00 | 0.00 | 40 | 1014.3 |
| 20260906185715 | 97 | 128 | 3.5 | 5.2 | 0.00 | 0.00 | 0.00 | 41 | 1014.5 |
| 20260906185215 | 98 | 151 | 0.9 | 1.7 | 0.00 | 0.00 | 0.00 | 40 | 1014.3 |
| 20260906184709 | 100 | 184 | 1.7 | 5.2 | 0.00 | 0.00 | 0.00 | 41 | 1014.3 |
| 20260906184205 | 100 | 139 | 2.6 | 3.5 | 0.00 | 0.00 | 0.00 | 38 | 1014.7 |
| 20260906183700 | 98 | 81 | 2.6 | 5.2 | 0.00 | 0.00 | 0.00 | 40 | 1014.7 |
| 20260906183156 | 97 | 277 | 0.0 | 3.5 | 0.00 | 0.00 | 0.00 | 41 | 1014.7 |
| 20260906182656 | 99 | 154 | 2.6 | 5.2 | 0.00 | 0.00 | 0.00 | 41 | 1014.8 |
| 20260906182152 | 99 | 140 | 4.3 | 7.8 | 0.00 | 0.00 | 0.00 | 39 | 1014.8 |
| 20260906181647 | 98 | 111 | 0.9 | 1.7 | 0.00 | 0.00 | 0.00 | 41 | 1014.9 |
| 20260906181143 | 96 | 113 | 1.7 | 3.5 | 0.00 | 0.00 | 0.00 | 41 | 1014.9 |
| 20260906180638 | 97 | 271 | 1.7 | 3.5 | 0.00 | 0.00 | 0.00 | 40 | 1015.2 |
| 20260906180139 | 99 | 199 | 3.5 | 7.0 | 0.00 | 0.00 | 0.00 | 39 | 1015.1 |
| 20260906175636 | 99 | 204 | 1.7 | 5.2 | 0.00 | 0.00 | 0.00 | 38 | 1015.2 |
| 20260906175132 | 99 | 180 | 2.6 | 3.5 | 0.00 | 0.00 | 0.00 | 38 | 1015.3 |
| 20260906174630 | 99 | 162 | 2.6 | 7.8 | 0.00 | 0.00 | 0.00 | 39 | 1015.5 |
| 20260906174125 | 100 | 166 | 3.5 | 5.2 | 0.00 | 0.00 | 0.00 | 39 | 1015.4 |
| 20260906173620 | 97 | 158 | 2.6 | 7.0 | 0.00 | 0.00 | 0.00 | 41 | 1015.6 |
| 20260906173116 | 96 | 106 | 0.0 | 1.7 | 0.00 | 0.00 | 0.00 | 41 | 1015.7 |
| 20260906172615 | 97 | 159 | 2.6 | 6.1 | 0.00 | 0.00 | 0.00 | 42 | 1015.8 |
| 20260906172111 | 97 | 146 | 2.6 | 2.6 | 0.00 | 0.00 | 0.00 | 43 | 1016.0 |
| 20260906171610 | 98 | 213 | 1.7 | 1.7 | 0.00 | 0.00 | 0.00 | 43 | 1015.8 |
| 20260906171107 | 96 | 146 | 2.6 | 3.5 | 0.00 | 0.00 | 0.00 | 44 | 1016.2 |
| 20260906170603 | 98 | 105 | 0.9 | 3.5 | 0.00 | 0.00 | 0.00 | 44 | 1016.0 |
| 20260906165558 | 96 | 58 | 1.7 | 2.6 | 0.00 | 0.00 | 0.00 | 43 | 1016.2 |
| 20260906165059 | 97 | 74 | 2.6 | 2.6 | 0.00 | 0.00 | 0.00 | 43 | 1016.3 |
| 20260906164558 | 98 | 181 | 0.9 | 2.6 | 0.00 | 0.00 | 0.00 | 44 | 1016.4 |
| 20260906164054 | 97 | 176 | 0.9 | 1.7 | 0.00 | 0.00 | 0.00 | 44 | 1016.5 |
| 20260906163549 | 97 | 187 | 1.7 | 1.7 | 0.00 | 0.00 | 0.00 | 43 | 1016.5 |
| 20260906163045 | 96 | 140 | 0.9 | 2.6 | 0.00 | 0.00 | 0.00 | 44 | 1016.4 |
| 20260906162542 | 97 | 160 | 0.9 | 2.6 | 0.00 | 0.00 | 0.00 | 45 | 1016.4 |
| 20260906162037 | 96 | 50 | 0.9 | 0.9 | 0.00 | 0.00 | 0.00 | 46 | 1016.3 |
| 20260906161532 | 95 | 121 | 0.0 | 0.9 | 0.00 | 0.00 | 0.00 | 45 | 1016.6 |
| 20260906161031 | 95 | 142 | 2.6 | 2.6 | 0.00 | 0.00 | 0.00 | 46 | 1016.5 |
| 20260906160530 | 94 | 144 | 0.9 | 3.5 | 0.00 | 0.00 | 0.00 | 46 | 1016.4 |
| 20260906160029 | 94 | 137 | 1.7 | 1.7 | 0.00 | 0.00 | 0.00 | 46 | 1016.4 |
| 20260906155526 | 94 | 180 | 1.7 | 2.6 | 0.00 | 0.00 | 0.00 | 45 | 1016.4 |
| 20260906155022 | 94 | 178 | 1.7 | 1.7 | 0.00 | 0.00 | 0.00 | 46 | 1016.4 |
| 20260906154518 | 94 | 192 | 1.7 | 2.6 | 0.00 | 0.00 | 0.00 | 47 | 1016.3 |
| 20260906154016 | 94 | 180 | 0.9 | 1.7 | 0.00 | 0.00 | 0.00 | 47 | 1016.4 |
| 20260906153515 | 94 | 166 | 1.7 | 3.5 | 0.00 | 0.00 | 0.00 | 48 | 1016.4 |
| 20260906153011 | 95 | 194 | 3.5 | 5.2 | 0.00 | 0.00 | 0.00 | 46 | 1016.2 |
| 20260906152511 | 96 | 185 | 1.7 | 2.6 | 0.00 | 0.00 | 0.00 | 46 | 1016.2 |
| 20260906152010 | 95 | 162 | 1.7 | 3.5 | 0.00 | 0.00 | 0.00 | 46 | 1016.2 |
| 20260906151506 | 94 | 268 | 4.3 | 5.2 | 0.00 | 0.00 | 0.00 | 47 | 1016.1 |
| 20260906151001 | 95 | 249 | 0.9 | 2.6 | 0.00 | 0.00 | 0.00 | 49 | 1016.1 |
| 20260906150456 | 94 | 202 | 1.7 | 2.6 | 0.00 | 0.00 | 0.00 | 48 | 1015.9 |
| 20260906145955 | 95 | 191 | 0.9 | 0.9 | 0.00 | 0.00 | 0.00 | 49 | 1016.3 |
| 20260906145456 | 93 | 190 | 0.9 | 1.7 | 0.00 | 0.00 | 0.00 | 49 | 1016.1 |
| 20260906144955 | 93 | 272 | 3.5 | 3.5 | 0.00 | 0.00 | 0.00 | 50 | 1016.0 |
| 20260906144450 | 92 | 262 | 1.7 | 5.2 | 0.00 | 0.00 | 0.00 | 50 | 1016.1 |
| 20260906143945 | 92 | 172 | 0.0 | 1.7 | 0.00 | 0.00 | 0.00 | 53 | 1016.1 |
| 20260906143441 | 91 | 207 | 2.6 | 2.6 | 0.00 | 0.00 | 0.00 | 55 | 1016.1 |
| 20260906142937 | 91 | 202 | 0.0 | 1.7 | 0.00 | 0.00 | 0.00 | 53 | 1016.0 |
| 20260906142437 | 90 | 194 | 0.9 | 0.9 | 0.00 | 0.00 | 0.00 | 56 | 1016.1 |
| 20260906141932 | 89 | 185 | 0.0 | 1.7 | 0.00 | 0.00 | 0.00 | 55 | 1015.9 |
| 20260906141431 | 89 | 181 | 2.6 | 2.6 | 0.00 | 0.00 | 0.00 | 55 | 1015.8 |
| 20260906140926 | 88 | 171 | 0.0 | 1.7 | 0.00 | 0.00 | 0.00 | 58 | 1016.0 |
| 20260906140420 | 87 | 124 | 0.0 | 0.9 | 0.00 | 0.00 | 0.00 | 59 | 1016.1 |
| 20260906135919 | 87 | 162 | 1.7 | 2.6 | 0.00 | 0.00 | 0.00 | 59 | 1016.0 |
| 20260906135418 | 86 | 177 | 0.9 | 2.6 | 0.00 | 0.00 | 0.00 | 60 | 1015.9 |
| 20260906134914 | 86 | 174 | 0.9 | 1.7 | 0.00 | 0.00 | 0.00 | 63 | 1015.9 |
| 20260906134409 | 84 | 170 | 0.9 | 1.7 | 0.00 | 0.00 | 0.00 | 62 | 1015.8 |
| 20260906133904 | 84 | 184 | 0.9 | 1.7 | 0.00 | 0.00 | 0.00 | 62 | 1015.9 |
| 20260906133359 | 83 | 172 | 1.7 | 1.7 | 0.00 | 0.00 | 0.00 | 64 | 1015.8 |
| 20260906132855 | 83 | 171 | 0.9 | 1.7 | 0.00 | 0.00 | 0.00 | 64 | 1015.8 |
| 20260906132350 | 83 | 170 | 0.9 | 0.9 | 0.00 | 0.00 | 0.00 | 64 | 1015.9 |
| 20260906131845 | 83 | 165 | 0.9 | 0.9 | 0.00 | 0.00 | 0.00 | 64 | 1015.6 |
| 20260906131341 | 83 | 197 | 0.9 | 1.7 | 0.00 | 0.00 | 0.00 | 63 | 1015.6 |
| 20260906130837 | 82 | 178 | 0.9 | 1.7 | 0.00 | 0.00 | 0.00 | 64 | 1015.6 |
| 20260906130336 | 82 | 179 | 0.9 | 1.7 | 0.00 | 0.00 | 0.00 | 66 | 1015.6 |
| 20260906125835 | 81 | 175 | 0.9 | 1.7 | 0.00 | 0.00 | 0.00 | 67 | 1015.6 |
| 20260906125332 | 80 | 158 | 1.7 | 1.7 | 0.00 | 0.00 | 0.00 | 67 | 1015.6 |
| 20260906124827 | 80 | 174 | 0.9 | 0.9 | 0.00 | 0.00 | 0.00 | 68 | 1015.4 |
| 20260906124323 | 79 | 176 | 0.9 | 0.9 | 0.00 | 0.00 | 0.00 | 69 | 1015.5 |
| 20260906123822 | 79 | 175 | 0.9 | 1.7 | 0.00 | 0.00 | 0.00 | 69 | 1015.3 |
| 20260906123318 | 79 | 168 | 1.7 | 2.6 | 0.00 | 0.00 | 0.00 | 68 | 1015.1 |
| 20260906122817 | 79 | 174 | 1.7 | 1.7 | 0.00 | 0.00 | 0.00 | 69 | 1015.3 |
| 20260906122312 | 79 | 171 | 1.7 | 1.7 | 0.00 | 0.00 | 0.00 | 69 | 1015.1 |
| 20260906121809 | 78 | 174 | 0.9 | 1.7 | 0.00 | 0.00 | 0.00 | 69 | 1015.2 |
| 20260906121305 | 78 | 173 | 1.7 | 1.7 | 0.00 | 0.00 | 0.00 | 70 | 1015.2 |
| 20260906120801 | 78 | 168 | 1.7 | 1.7 | 0.00 | 0.00 | 0.00 | 70 | 1015.0 |
| 20260906120257 | 78 | 174 | 0.9 | 2.6 | 0.00 | 0.00 | 0.00 | 70 | 1014.8 |
| 20260906115753 | 78 | 170 | 1.7 | 1.7 | 0.00 | 0.00 | 0.00 | 69 | 1015.0 |
| 20260906115248 | 78 | 174 | 1.7 | 2.6 | 0.00 | 0.00 | 0.00 | 70 | 1014.9 |
| 20260906114747 | 78 | 174 | 1.7 | 2.6 | 0.00 | 0.00 | 0.00 | 70 | 1014.9 |
| 20260906114242 | 77 | 178 | 1.7 | 2.6 | 0.00 | 0.00 | 0.00 | 71 | 1015.0 |
| 20260906113738 | 77 | 175 | 0.9 | 1.7 | 0.00 | 0.00 | 0.00 | 72 | 1014.6 |
| 20260906113237 | 77 | 175 | 0.9 | 1.7 | 0.00 | 0.00 | 0.00 | 72 | 1014.7 |
| 20260906112736 | 77 | 173 | 0.9 | 0.9 | 0.00 | 0.00 | 0.00 | 72 | 1014.7 |
| 20260906112233 | 77 | 173 | 1.7 | 1.7 | 0.00 | 0.00 | 0.00 | 71 | 1014.6 |
| 20260906111732 | 78 | 172 | 0.9 | 1.7 | 0.00 | 0.00 | 0.00 | 70 | 1014.3 |
| 20260906111227 | 78 | 174 | 0.9 | 1.7 | 0.00 | 0.00 | 0.00 | 69 | 1014.6 |
| 20260906110722 | 78 | 178 | 1.7 | 2.6 | 0.00 | 0.00 | 0.00 | 70 | 1014.7 |
| 20260906110218 | 78 | 180 | 0.9 | 2.6 | 0.00 | 0.00 | 0.00 | 70 | 1014.2 |
| 20260906105717 | 78 | 174 | 1.7 | 1.7 | 0.00 | 0.00 | 0.00 | 69 | 1014.5 |
| 20260906105213 | 78 | 176 | 1.7 | 2.6 | 0.00 | 0.00 | 0.00 | 69 | 1014.3 |
| 20260906104713 | 78 | 180 | 1.7 | 1.7 | 0.00 | 0.00 | 0.00 | 69 | 1014.2 |
| 20260906104212 | 78 | 172 | 1.7 | 1.7 | 0.00 | 0.00 | 0.00 | 69 | 1014.1 |
| 20260906103709 | 78 | 174 | 1.7 | 1.7 | 0.00 | 0.00 | 0.00 | 69 | 1014.2 |
| 20260906103205 | 78 | 178 | 1.7 | 2.6 | 0.00 | 0.00 | 0.00 | 69 | 1014.2 |
| 20260906102700 | 78 | 176 | 1.7 | 1.7 | 0.00 | 0.00 | 0.00 | 69 | 1014.2 |
| 20260906102200 | 78 | 176 | 1.7 | 1.7 | 0.00 | 0.00 | 0.00 | 69 | 1014.3 |
| 20260906101700 | 78 | 178 | 1.7 | 1.7 | 0.00 | 0.00 | 0.00 | 69 | 1014.1 |
| 20260906101155 | 78 | 179 | 0.9 | 1.7 | 0.00 | 0.00 | 0.00 | 70 | 1014.1 |
| 20260906100650 | 78 | 177 | 0.9 | 1.7 | 0.00 | 0.00 | 0.00 | 69 | 1014.1 |
| 20260906100150 | 78 | 178 | 0.9 | 1.7 | 0.00 | 0.00 | 0.00 | 69 | 1014.1 |
| 20260906095645 | 78 | 176 | 0.9 | 0.9 | 0.00 | 0.00 | 0.00 | 69 | 1014.1 |
| 20260906095141 | 78 | 175 | 0.9 | 0.9 | 0.00 | 0.00 | 0.00 | 69 | 1013.9 |
| 20260906094639 | 78 | 175 | 0.0 | 0.0 | 0.00 | 0.00 | 0.00 | 69 | 1013.9 |
| 20260906094136 | 78 | 175 | 0.0 | 0.0 | 0.00 | 0.00 | 0.00 | 69 | 1013.9 |
| 20260906093632 | 79 | 175 | 0.0 | 1.7 | 0.00 | 0.00 | 0.00 | 68 | 1014.1 |
| 20260906093131 | 79 | 175 | 1.7 | 1.7 | 0.00 | 0.00 | 0.00 | 67 | 1014.1 |
| 20260906092626 | 79 | 176 | 1.7 | 1.7 | 0.00 | 0.00 | 0.00 | 68 | 1014.1 |
| 20260906092121 | 79 | 176 | 1.7 | 1.7 | 0.00 | 0.00 | 0.00 | 66 | 1014.1 |
| 20260906091618 | 79 | 176 | 0.9 | 1.7 | 0.00 | 0.00 | 0.00 | 66 | 1014.2 |
| 20260906091114 | 80 | 176 | 1.7 | 1.7 | 0.00 | 0.00 | 0.00 | 65 | 1014.0 |
| 20260906090615 | 80 | 172 | 1.7 | 1.7 | 0.00 | 0.00 | 0.00 | 65 | 1013.9 |
| 20260906090114 | 80 | 178 | 1.7 | 1.7 | 0.00 | 0.00 | 0.00 | 65 | 1014.1 |
| 20260906085614 | 80 | 175 | 1.7 | 1.7 | 0.00 | 0.00 | 0.00 | 65 | 1013.9 |
| 20260906085108 | 80 | 176 | 1.7 | 1.7 | 0.00 | 0.00 | 0.00 | 65 | 1014.0 |
| 20260906084603 | 80 | 176 | 1.7 | 1.7 | 0.00 | 0.00 | 0.00 | 65 | 1013.9 |
| 20260906084101 | 79 | 176 | 0.9 | 0.9 | 0.00 | 0.00 | 0.00 | 66 | 1014.1 |
| 20260906083557 | 78 | 176 | 0.0 | 0.9 | 0.00 | 0.00 | 0.00 | 68 | 1013.9 |
| 20260906083057 | 79 | 175 | 0.0 | 0.0 | 0.00 | 0.00 | 0.00 | 70 | 1013.9 |
| 20260906082552 | 80 | 175 | 0.0 | 0.0 | 0.00 | 0.00 | 0.00 | 65 | 1014.0 |
| 20260906082048 | 80 | 176 | 0.0 | 0.9 | 0.00 | 0.00 | 0.00 | 64 | 1014.0 |
| 20260906081544 | 81 | 175 | 0.9 | 1.7 | 0.00 | 0.00 | 0.00 | 64 | 1013.8 |
| 20260906081039 | 81 | 175 | 1.7 | 1.7 | 0.00 | 0.00 | 0.00 | 63 | 1013.8 |
| 20260906080536 | 81 | 176 | 1.7 | 1.7 | 0.00 | 0.00 | 0.00 | 63 | 1013.7 |
| 20260906080032 | 81 | 176 | 1.7 | 1.7 | 0.00 | 0.00 | 0.00 | 64 | 1013.9 |
| 20260906075531 | 81 | 178 | 1.7 | 1.7 | 0.00 | 0.00 | 0.00 | 63 | 1013.8 |
| 20260906075026 | 81 | 176 | 1.7 | 2.6 | 0.00 | 0.00 | 0.00 | 63 | 1013.8 |
| 20260906074521 | 81 | 190 | 1.7 | 1.7 | 0.00 | 0.00 | 0.00 | 63 | 1013.9 |
| 20260906074019 | 81 | 174 | 1.7 | 1.7 | 0.00 | 0.00 | 0.00 | 62 | 1013.8 |
| 20260906073514 | 81 | 178 | 0.9 | 1.7 | 0.00 | 0.00 | 0.00 | 63 | 1013.8 |
| 20260906073011 | 81 | 178 | 0.9 | 1.7 | 0.00 | 0.00 | 0.00 | 64 | 1013.5 |
| 20260906072505 | 81 | 178 | 0.9 | 1.7 | 0.00 | 0.00 | 0.00 | 64 | 1013.9 |
| 20260906072001 | 80 | 178 | 0.9 | 1.7 | 0.00 | 0.00 | 0.00 | 65 | 1013.9 |
| 20260906071457 | 80 | 182 | 0.9 | 0.9 | 0.00 | 0.00 | 0.00 | 65 | 1013.8 |
| 20260906070952 | 78 | 172 | 0.0 | 0.9 | 0.00 | 0.00 | 0.00 | 67 | 1013.9 |
| 20260906070448 | 78 | 176 | 0.9 | 0.9 | 0.00 | 0.00 | 0.00 | 69 | 1013.9 |
| 20260906065944 | 78 | 176 | 0.0 | 0.9 | 0.00 | 0.00 | 0.00 | 69 | 1014.0 |
| 20260906065443 | 79 | 176 | 0.0 | 0.0 | 0.00 | 0.00 | 0.00 | 68 | 1014.1 |
| 20260906064939 | 79 | 176 | 0.0 | 0.9 | 0.00 | 0.00 | 0.00 | 67 | 1013.9 |
| 20260906064436 | 80 | 176 | 0.0 | 0.0 | 0.00 | 0.00 | 0.00 | 65 | 1014.1 |
| 20260906063936 | 80 | 176 | 0.0 | 0.0 | 0.00 | 0.00 | 0.00 | 64 | 1013.9 |
| 20260906063431 | 79 | 176 | 0.9 | 0.9 | 0.00 | 0.00 | 0.00 | 65 | 1013.8 |
| 20260906062926 | 79 | 176 | 0.0 | 0.9 | 0.00 | 0.00 | 0.00 | 68 | 1013.9 |
| 20260906062427 | 80 | 176 | 0.0 | 0.0 | 0.00 | 0.00 | 0.00 | 66 | 1014.1 |
| 20260906061921 | 80 | 176 | 0.0 | 0.0 | 0.00 | 0.00 | 0.00 | 63 | 1014.1 |
| 20260906061418 | 81 | 176 | 0.0 | 0.0 | 0.00 | 0.00 | 0.00 | 63 | 1014.1 |
| 20260906060912 | 81 | 176 | 0.9 | 0.9 | 0.00 | 0.00 | 0.00 | 62 | 1014.2 |
| 20260906060409 | 81 | 176 | 0.9 | 0.9 | 0.00 | 0.00 | 0.00 | 62 | 1014.0 |
| 20260906055905 | 81 | 175 | 0.9 | 1.7 | 0.00 | 0.00 | 0.00 | 61 | 1014.0 |
| 20260906055401 | 81 | 176 | 0.9 | 1.7 | 0.00 | 0.00 | 0.00 | 61 | 1013.9 |
| 20260906054856 | 82 | 175 | 0.9 | 1.7 | 0.00 | 0.00 | 0.00 | 60 | 1014.1 |
| 20260906054350 | 82 | 176 | 0.9 | 1.7 | 0.00 | 0.00 | 0.00 | 60 | 1013.9 |
| 20260906053847 | 81 | 178 | 0.9 | 1.7 | 0.00 | 0.00 | 0.00 | 61 | 1014.0 |
| 20260906053342 | 82 | 161 | 0.9 | 1.7 | 0.00 | 0.00 | 0.00 | 61 | 1014.0 |
| 20260906052838 | 82 | 159 | 0.0 | 1.7 | 0.00 | 0.00 | 0.00 | 60 | 1014.0 |
| 20260906052334 | 82 | 172 | 0.0 | 0.9 | 0.00 | 0.00 | 0.00 | 59 | 1013.8 |
| 20260906051831 | 83 | 156 | 0.9 | 2.6 | 0.00 | 0.00 | 0.00 | 59 | 1013.8 |
| 20260906051330 | 83 | 171 | 1.7 | 2.6 | 0.00 | 0.00 | 0.00 | 59 | 1013.7 |
| 20260906050826 | 82 | 137 | 1.7 | 3.5 | 0.00 | 0.00 | 0.00 | 60 | 1013.9 |
| 20260906050321 | 79 | 173 | 0.9 | 1.7 | 0.00 | 0.00 | 0.00 | 65 | 1013.8 |
| 20260906045820 | 79 | 176 | 0.0 | 0.0 | 0.00 | 1.48 | 1.48 | 65 | 1013.6 |
| 20260906045314 | 80 | 176 | 0.0 | 0.0 | 0.00 | 1.48 | 1.48 | 65 | 1013.8 |
| 20260906044811 | 80 | 176 | 0.0 | 0.0 | 0.00 | 1.48 | 1.48 | 64 | 1013.7 |
| 20260906044305 | 80 | 176 | 0.0 | 0.0 | 0.00 | 1.48 | 1.48 | 64 | 1013.8 |
| 20260906043801 | 81 | 176 | 0.0 | 0.9 | 0.00 | 1.48 | 1.48 | 63 | 1013.8 |
| 20260906043257 | 82 | 176 | 0.0 | 0.0 | 0.00 | 1.48 | 1.48 | 61 | 1013.8 |
| 20260906042756 | 82 | 178 | 0.0 | 0.0 | 0.00 | 1.48 | 1.48 | 59 | 1013.7 |
| 20260906042256 | 82 | 178 | 0.0 | 0.0 | 0.00 | 1.48 | 1.48 | 59 | 1013.8 |
| 20260906041751 | 82 | 178 | 0.0 | 0.0 | 0.00 | 1.48 | 1.48 | 59 | 1013.6 |
| 20260906041247 | 83 | 178 | 0.0 | 0.0 | 0.00 | 1.48 | 1.48 | 59 | 1013.8 |
| 20260906040742 | 83 | 178 | 0.0 | 0.0 | 0.00 | 1.48 | 1.48 | 58 | 1013.6 |
| 20260906040237 | 83 | 178 | 0.9 | 0.9 | 0.00 | 1.48 | 1.48 | 57 | 1013.8 |
| 20260906035732 | 83 | 176 | 0.0 | 0.9 | 0.00 | 1.48 | 1.48 | 59 | 1013.8 |
| 20260906035228 | 84 | 178 | 0.0 | 0.0 | 0.00 | 1.48 | 1.48 | 57 | 1014.0 |
| 20260906034728 | 84 | 178 | 0.0 | 0.9 | 0.00 | 1.48 | 1.48 | 57 | 1013.9 |
| 20260906034223 | 84 | 176 | 0.0 | 0.0 | 0.00 | 1.48 | 1.48 | 56 | 1013.8 |
| 20260906033719 | 84 | 178 | 0.0 | 0.0 | 0.00 | 1.48 | 1.48 | 56 | 1013.9 |
| 20260906033218 | 84 | 176 | 0.0 | 0.0 | 0.00 | 1.48 | 1.48 | 56 | 1013.7 |
| 20260906032715 | 85 | 176 | 0.0 | 0.0 | 0.00 | 1.48 | 1.48 | 56 | 1013.7 |
| 20260906032215 | 86 | 176 | 0.0 | 0.9 | 0.00 | 1.48 | 1.48 | 54 | 1013.7 |
| 20260906031710 | 86 | 178 | 0.9 | 0.9 | 0.00 | 1.48 | 1.48 | 53 | 1013.6 |
| 20260906031206 | 86 | 178 | 0.9 | 0.9 | 0.00 | 1.48 | 1.48 | 52 | 1013.7 |
| 20260906030705 | 87 | 177 | 0.9 | 1.7 | 0.00 | 1.48 | 1.48 | 52 | 1013.6 |
| 20260906030201 | 87 | 176 | 1.7 | 1.7 | 0.00 | 1.48 | 1.48 | 52 | 1013.6 |
| 20260906025700 | 86 | 174 | 0.9 | 1.7 | 0.00 | 1.48 | 1.48 | 52 | 1013.5 |
| 20260906025200 | 87 | 175 | 0.9 | 0.9 | 0.00 | 1.48 | 1.48 | 54 | 1013.7 |
| 20260906024654 | 87 | 176 | 0.9 | 0.9 | 0.00 | 1.48 | 1.48 | 51 | 1013.5 |
| 20260906024153 | 88 | 176 | 0.9 | 1.7 | 0.00 | 1.48 | 1.48 | 51 | 1013.3 |
| 20260906023649 | 88 | 174 | 0.9 | 1.7 | 0.00 | 1.48 | 1.48 | 50 | 1013.4 |
| 20260906023149 | 88 | 176 | 1.7 | 1.7 | 0.00 | 1.48 | 1.48 | 51 | 1013.2 |
| 20260906022644 | 87 | 167 | 1.7 | 1.7 | 0.00 | 1.48 | 1.48 | 51 | 1013.1 |
| 20260906022140 | 86 | 164 | 1.7 | 1.7 | 0.00 | 1.48 | 1.48 | 53 | 1013.1 |
| 20260906021636 | 86 | 163 | 0.9 | 1.7 | 0.00 | 1.48 | 1.48 | 53 | 1013.1 |
| 20260906021134 | 86 | 159 | 0.9 | 0.9 | 0.00 | 1.48 | 1.48 | 53 | 1013.1 |
| 20260906020635 | 85 | 159 | 0.0 | 0.9 | 0.00 | 1.48 | 1.48 | 55 | 1013.1 |
| 20260906020130 | 85 | 159 | 0.0 | 0.9 | 0.00 | 1.48 | 1.48 | 55 | 1012.9 |
| 20260906015624 | 86 | 159 | 0.0 | 0.0 | 0.00 | 1.48 | 1.48 | 54 | 1012.8 |
| 20260906015122 | 86 | 159 | 0.9 | 0.9 | 0.00 | 1.48 | 1.48 | 54 | 1013.0 |
| 20260906014623 | 87 | 159 | 0.0 | 0.0 | 0.00 | 1.48 | 1.48 | 52 | 1012.9 |
| 20260906014119 | 88 | 159 | 0.0 | 0.9 | 0.00 | 1.48 | 1.48 | 51 | 1012.7 |
| 20260906013614 | 89 | 159 | 0.0 | 0.0 | 0.00 | 1.48 | 1.48 | 49 | 1012.7 |
| 20260906013109 | 89 | 159 | 0.0 | 0.0 | 0.00 | 1.48 | 1.48 | 48 | 1012.9 |
| 20260906012604 | 90 | 159 | 0.9 | 0.9 | 0.00 | 1.48 | 1.48 | 48 | 1012.8 |
| 20260906012059 | 90 | 159 | 0.9 | 0.9 | 0.00 | 1.48 | 1.48 | 47 | 1012.7 |
| 20260906011555 | 90 | 159 | 0.9 | 0.9 | 0.00 | 1.48 | 1.48 | 47 | 1012.7 |
| 20260906011054 | 91 | 159 | 0.9 | 0.9 | 0.00 | 1.48 | 1.48 | 46 | 1012.6 |
| 20260906010550 | 91 | 158 | 0.0 | 0.9 | 0.00 | 1.48 | 1.48 | 46 | 1012.4 |
| 20260906010046 | 91 | 158 | 0.9 | 0.9 | 0.00 | 1.48 | 1.48 | 46 | 1012.5 |
| 20260906005545 | 92 | 158 | 0.0 | 0.9 | 0.00 | 1.48 | 1.48 | 45 | 1012.4 |
| 20260906005044 | 92 | 158 | 0.9 | 0.9 | 0.00 | 1.48 | 1.48 | 45 | 1012.4 |
| 20260906004544 | 93 | 173 | 0.0 | 0.9 | 0.00 | 1.48 | 1.48 | 44 | 1012.3 |
| 20260906004039 | 94 | 172 | 0.9 | 0.9 | 0.00 | 1.48 | 1.48 | 43 | 1012.5 |
| 20260906003534 | 94 | 165 | 0.9 | 1.7 | 0.00 | 1.48 | 1.48 | 41 | 1012.4 |
| 20260906003030 | 95 | 170 | 0.9 | 0.9 | 0.00 | 1.48 | 1.48 | 41 | 1012.3 |
| 20260906002525 | 95 | 155 | 1.7 | 2.6 | 0.00 | 1.48 | 1.48 | 40 | 1012.3 |
| 20260906002020 | 96 | 161 | 0.9 | 1.7 | 0.00 | 1.48 | 1.48 | 40 | 1012.4 |
| 20260906001516 | 96 | 154 | 0.9 | 1.7 | 0.00 | 1.48 | 1.48 | 40 | 1012.4 |
| 20260906001015 | 96 | 174 | 1.7 | 1.7 | 0.00 | 1.48 | 1.48 | 39 | 1012.2 |
| 20260906000512 | 97 | 178 | 1.7 | 1.7 | 0.00 | 1.48 | 1.48 | 39 | 1012.3 |
| 20260906000006 | 97 | 171 | 1.7 | 5.2 | 0.00 | 1.48 | 1.48 | 38 | 1012.1 |
| 20260905235506 | 98 | 175 | 1.7 | 2.6 | 0.00 | 1.48 | 1.48 | 38 | 1012.3 |
| 20260905235001 | 98 | 197 | 1.7 | 2.6 | 0.00 | 1.48 | 1.48 | 37 | 1012.3 |
| 20260905234456 | 98 | 170 | 1.7 | 3.5 | 0.00 | 1.48 | 1.48 | 37 | 1012.2 |
| 20260905233956 | 98 | 128 | 3.5 | 3.5 | 0.00 | 1.48 | 1.48 | 37 | 1012.1 |
| 20260905233452 | 98 | 189 | 1.7 | 2.6 | 0.00 | 1.48 | 1.48 | 36 | 1012.0 |
| 20260905232950 | 98 | 146 | 3.5 | 5.2 | 0.00 | 1.48 | 1.48 | 37 | 1011.8 |
| 20260905232447 | 98 | 173 | 0.9 | 2.6 | 0.00 | 1.48 | 1.48 | 37 | 1011.9 |
| 20260905231942 | 98 | 147 | 1.7 | 2.6 | 0.00 | 1.48 | 1.48 | 37 | 1011.9 |
| 20260905231438 | 99 | 191 | 1.7 | 2.6 | 0.00 | 1.48 | 1.48 | 37 | 1012.0 |
| 20260905230934 | 98 | 82 | 1.7 | 2.6 | 0.00 | 1.48 | 1.48 | 37 | 1011.9 |
| 20260905230432 | 99 | 132 | 3.5 | 5.2 | 0.00 | 1.48 | 1.48 | 37 | 1012.0 |
| 20260905225931 | 99 | 169 | 1.7 | 2.6 | 0.00 | 1.48 | 1.48 | 37 | 1011.9 |
| 20260905225426 | 98 | 174 | 2.6 | 6.1 | 0.00 | 1.48 | 1.48 | 37 | 1012.0 |
| 20260905224921 | 98 | 173 | 1.7 | 3.5 | 0.00 | 1.48 | 1.48 | 38 | 1012.0 |
| 20260905224417 | 99 | 141 | 3.5 | 5.2 | 0.00 | 1.48 | 1.48 | 38 | 1011.9 |
| 20260905223916 | 98 | 161 | 0.0 | 1.7 | 0.00 | 1.48 | 1.48 | 38 | 1012.0 |
| 20260905223415 | 97 | 190 | 1.7 | 3.5 | 0.00 | 1.48 | 1.48 | 38 | 1012.0 |
| 20260905222915 | 99 | 111 | 3.5 | 5.2 | 0.00 | 1.48 | 1.48 | 36 | 1011.8 |
| 20260905222414 | 98 | 137 | 1.7 | 2.6 | 0.00 | 1.48 | 1.48 | 37 | 1012.0 |
| 20260905221910 | 99 | 143 | 1.7 | 6.1 | 0.00 | 1.48 | 1.48 | 37 | 1011.9 |
| 20260905221406 | 100 | 160 | 3.5 | 5.2 | 0.00 | 1.48 | 1.48 | 37 | 1012.0 |
| 20260905220902 | 100 | 193 | 4.3 | 7.0 | 0.00 | 1.48 | 1.48 | 37 | 1011.9 |
| 20260905220358 | 100 | 169 | 1.7 | 2.6 | 0.00 | 1.48 | 1.48 | 36 | 1012.1 |
| 20260905215857 | 100 | 118 | 1.7 | 2.6 | 0.00 | 1.48 | 1.48 | 35 | 1011.8 |
| 20260905215353 | 99 | 66 | 2.6 | 6.1 | 0.00 | 1.48 | 1.48 | 36 | 1012.0 |
| 20260905214849 | 99 | 151 | 4.3 | 6.1 | 0.00 | 1.48 | 1.48 | 36 | 1012.0 |
| 20260905214344 | 100 | 157 | 3.5 | 5.2 | 0.00 | 1.48 | 1.48 | 36 | 1012.2 |
| 20260905213839 | 99 | 125 | 2.6 | 6.1 | 0.00 | 1.48 | 1.48 | 37 | 1012.2 |
| 20260905213335 | 99 | 130 | 1.7 | 2.6 | 0.00 | 1.48 | 1.48 | 38 | 1012.1 |
| 20260905212830 | 99 | 117 | 0.0 | 1.7 | 0.00 | 1.48 | 1.48 | 41 | 1012.4 |
| 20260905212330 | 100 | 98 | 2.6 | 7.0 | 0.00 | 1.48 | 1.48 | 36 | 1012.5 |
| 20260905211824 | 99 | 71 | 0.9 | 5.2 | 0.00 | 1.48 | 1.48 | 38 | 1012.5 |
| 20260905211320 | 100 | 147 | 1.7 | 3.5 | 0.00 | 1.48 | 1.48 | 39 | 1012.6 |
| 20260905210816 | 97 | 25 | 0.9 | 3.5 | 0.00 | 1.48 | 1.48 | 39 | 1012.8 |
| 20260905210316 | 99 | 144 | 3.5 | 5.2 | 0.00 | 1.48 | 1.48 | 38 | 1013.0 |
| 20260905205814 | 98 | 119 | 3.5 | 3.5 | 0.00 | 1.48 | 1.48 | 38 | 1012.8 |
| 20260905205309 | 99 | 188 | 5.2 | 7.8 | 0.00 | 1.48 | 1.48 | 38 | 1013.0 |
| 20260905204808 | 99 | 150 | 4.3 | 7.8 | 0.00 | 1.48 | 1.48 | 38 | 1013.0 |
| 20260905204305 | 99 | 73 | 2.6 | 5.2 | 0.00 | 1.48 | 1.48 | 38 | 1012.8 |
| 20260905203803 | 99 | 184 | 3.5 | 6.1 | 0.00 | 1.48 | 1.48 | 38 | 1013.0 |
| 20260905203259 | 99 | 129 | 3.5 | 5.2 | 0.00 | 1.48 | 1.48 | 39 | 1013.1 |